map of NAT home
Great Circle Mapper logo
NAT - Airport
Location
City:  Natal, Rio Grande do Norte, Brazil
Near (Alt.):Parnamirim
Name:Augusto Severo International Airport
Old (Alt.):Parnamirim Airport
ICAO / IATA:SBNT / NAT

Details
Type:Airport (Aerodrome, Airfield)
Use:Public/Civil, Military, International (customs port of entry)
Latitude:554'41"S (-5.911416)
Longitude:3514'52"W (-35.247716)
Datum:WGS 1984
Elevation:169 ft (52 m)
Runways:3
Longest:8531 × 148 ft (2600 × 45 m), paved

Time
Time Zone:UTC-3
Local Time:

Weather
METAR:SBNT 230900Z 18005KT 9999 FEW015 SCT020 BKN100 23/20 Q1015
TAF:SBNT 221000Z 2212/2312 12016KT 7000 BKN025 TX30/2214Z TN24/2307Z
BECMG 2214/2215 SCT025
BECMG 2220/2221 11009KT
BECMG 2309/2311 11014KT BKN 025
RMK PEI

Related Locations
Nearby:
Farthest:ULI: 12000 mi / 19313 km
Falalop Island, Ulithi Atoll, YAP, FM

Find:

   beyond  
but within

Other Information
Maps:
NOTAMs:
Links:
Sources:

  
flag of Brazil
flag of Rio Grande do Norte
  

Sectional Chart

Flight Planning
at skyvector.com

Satellite Image

Google Maps Satellite View

 

Copyright © 2004-2014 Karl L. Swartz. All rights reserved.
The Great Circle Mapper name and logo are trademarks of the Great Circle Mapper.
All other trademarks mentioned herein belong to their respective owners.
Please see credits for attibutions and further copyright information.

  Follow gcmap on Facebook Follow gcmap on Twitter

hCard Microformat

Geo Microformat